Tracking 27371 objects as of 7-Jun-2023
HD Live streaming from Space Station
objects crossing your sky now

FENGYUN 1C DEB

Track FENGYUN 1C DEB now!
10-day predictions


NORAD ID: 46992
Int'l Code: 1999-025EZS
Perigee: 854.0 km
Apogee: 950.9 km
Inclination: 98.8 °
Period: 102.9 minutes
Semi major axis: 7273 km
RCS: Unknown
Launch date: May 10, 1999
Source: People's Republic of China (PRC)
Launch site: Taiyaun Space Center, China (TSC)

Note: This is SATELLITE DEBRIS
Your satellite tracking list
Your tracking list is empty




NASA's NSSDC Master Catalog

Two Line Element Set (TLE):
1 46992U 99025EZS 23156.24548683  .00000136  00000-0  11986-3 0  9990
2 46992  98.8442 160.5041 0066600 201.7533 158.0800 13.99558294480620
Source of the keplerian elements: AFSPC